Miscellaneous Local Product
Issued by NWS North Platte, NE

Home | Current Version | Previous Version | Text Only | Print | Product List | Glossary On
Versions: 1 2 3 4 5 6 7 8 9 10 11 12 13 14 15 16 17 18 19 20 21 22 23 24 25 26 27 28 29 30 31 32 33 34 35 36 37 38 39 40 41 42 43 44 45 46 47 48 49 50
000
AXUS43 KLBF 120210
MISLBF


WESTERN AND NORTH CENTRAL NEBRASKA HOURLY WEATHER ROUNDUP
NATIONAL WEATHER SERVICE NORTH PLATTE NE
900 PM CDT FRI JUL 11 2014

***STATIONS NOT REPORTING VARIABLES SUCH AS SKY/WEATHER OR
PRESSURE ARE PROVIDED BY THE NEBRASKA DEPARTMENT OF
ROADS...RAWS...AND APRS NETWORKS...AND ARE NOT UNDER
NATIONAL WEATHER SERVICE QUALITY CONTROL***

...OBSERVATIONS IN AND NEAR THE EASTERN PANHANDLE OF NEBRASKA...

CITY           SKY/WX    TMP DP  RH WIND       PRES   REMARKS
PINE RIDGE     LGT RAIN  64  63  96 E9        30.15R FOG
CHADRON        CLOUDY    66  63  90 N13       30.15R
ALLIANCE       CLOUDY    68  64  87 N10       30.08S
SIDNEY         CLOUDY    72  65  78 E8        30.09F
WHITECLAY        N/A     63  62  96 NE6         N/A
RUSHVILLE        N/A     64  62  94 NE28        N/A
GORDON           N/A     66  66 100 N21         N/A
CRESCENT LAKE    N/A     73  66  79 NE6         N/A
LISCO            N/A     80  70  71 E5          N/A
BIG SPRINGS      N/A     79  69  72 CALM        N/A
$$

...OBSERVATIONS IN NORTH CENTRAL NEBRASKA...

CITY           SKY/WX    TMP DP  RH WIND       PRES   REMARKS
VALENTINE      CLOUDY    79  69  71 NE6       30.03R
THEDFORD       CLOUDY    81  68  63 E7        30.02R
AINSWORTH      MOCLDY    75  70  84 E6        30.03R
O`NEILL        CLOUDY    77  71  82 E6        30.02R
ORD            PTCLDY    76  72  87 E5        29.97R
BROKEN BOW     MOCLDY    79  75  87 SE7       29.98S
BROWNLEE         N/A     80  70  70 NE7         N/A
SPRINGVIEW       N/A     77  70  78 E3          N/A
ROSE             N/A     81  78  90 NE8         N/A
NEWPORT          N/A     78  75  92 E10         N/A
SARGENT          N/A     77  73  86 E3          N/A
COMSTOCK         N/A     83  80  89 E9          N/A  HX  95
CHAMBERS         N/A     75  71  89 E3          N/A
EWING            N/A     75  71  87 CALM        N/A
$$

...OBSERVATIONS IN SOUTHWEST NEBRASKA AND FAR NORTHEAST COLORADO...

CITY           SKY/WX    TMP DP  RH WIND       PRES   REMARKS
WRAY             N/A     78  62  57 N24G38    30.01R
HOLYOKE        TSTM      70  61  73 N20G32    30.06F
IMPERIAL       MOCLDY    82  68  62 SE6       30.00R
OGALLALA       TSTM      76  68  77 N5        30.04R
NORTH PLATTE   PTCLDY    80  69  69 E10       29.97S
MCCOOK         CLEAR     87  55  33 S13       29.92S
LEXINGTON      PTCLDY    80  76  86 E14       29.95F
PAXTON           N/A     81  69  65 E3          N/A
SUTHERLAND       N/A     85  73  68 E7          N/A  HX  92
BRADY            N/A     79  72  79 CALM        N/A
GOTHENBURG       N/A     83  69  63 NE6         N/A
CALLAWAY         N/A     80  73  80 E7          N/A
$$

...NORTH PLATTE AREA...

CITY           SKY/WX    TMP DP  RH WIND       PRES   REMARKS
AIRPORT        PTCLDY    80  69  69 E10       29.97S
INDIAN HILLS     N/A     80  71  73 CALM        N/A
$$

...SOME WEATHER OBSERVATIONS FROM AROUND THE REGION...

CITY           SKY/WX    TMP DP  RH WIND       PRES   REMARKS
DENVER         CLOUDY    70  63  78 W7        30.18R
LARAMIE        CLOUDY    65  56  72 NE14      30.29R
CHEYENNE       LGT RAIN  65  62  90 SE12      30.24R FOG
SCOTTSBLUFF    CLOUDY    75  66  73 NE6       30.09S
RAPID CITY     CLOUDY    67  61  81 SW9       30.11R
PIERRE         CLOUDY    78  63  59 NE5       29.98R
WINNER         MOCLDY    79  71  76 SE6       30.00R
SIOUX FALLS    MOCLDY    77  72  84 S5        29.99S
OMAHA          MOCLDY    80  73  79 E6        29.98R
GRAND ISLAND   CLEAR     80  75  84 NE5       29.97R
KANSAS CITY    PTCLDY    82  73  74 S9        30.01R
WICHITA        PTCLDY    83  65  54 S12       30.01R
HAYS           CLEAR     84  55  37 S13       29.98R
LIBERAL        CLEAR     88  54  31 S14       30.04R
GOODLAND       CLEAR     85  51  31 S15       29.98R
$$



USA.gov is the U.S. government's official web portal to all federal, state and local government web resources and services.